Year,Month,Day,Hour,Minute,Value (Times are PST for temperature in C)
2017,05,29,00,00,13.00
2017,05,29,00,01,13.00
2017,05,29,00,02,13.00
2017,05,29,00,03,13.00
2017,05,29,00,04,13.00
2017,05,29,00,05,13.00
2017,05,29,00,06,13.00
2017,05,29,00,07,13.00
2017,05,29,00,08,13.10
2017,05,29,00,09,13.00
2017,05,29,00,10,13.00
2017,05,29,00,11,12.90
2017,05,29,00,12,12.90
2017,05,29,00,13,12.80
2017,05,29,00,14,12.80
2017,05,29,00,15,12.80
2017,05,29,00,16,12.80
2017,05,29,00,17,12.80
2017,05,29,00,18,12.80
2017,05,29,00,19,12.80
2017,05,29,00,20,12.80
2017,05,29,00,21,12.80
2017,05,29,00,22,12.70
2017,05,29,00,23,12.70
2017,05,29,00,24,12.70
2017,05,29,00,25,12.70
2017,05,29,00,26,12.60
2017,05,29,00,27,12.60
2017,05,29,00,28,12.60
2017,05,29,00,29,12.50
2017,05,29,00,30,12.50
2017,05,29,00,31,12.50
2017,05,29,00,32,12.40
2017,05,29,00,33,12.40
2017,05,29,00,34,12.40
2017,05,29,00,35,12.40
2017,05,29,00,36,12.40
2017,05,29,00,37,12.40
2017,05,29,00,38,12.40
2017,05,29,00,39,12.40
2017,05,29,00,40,12.40
2017,05,29,00,41,12.40
2017,05,29,00,42,12.40
2017,05,29,00,43,12.40
2017,05,29,00,44,12.40
2017,05,29,00,45,12.40
2017,05,29,00,46,12.40
2017,05,29,00,47,12.40
2017,05,29,00,48,12.40
2017,05,29,00,49,12.40
2017,05,29,00,50,12.40
2017,05,29,00,51,12.40
2017,05,29,00,52,12.40
2017,05,29,00,53,12.40
2017,05,29,00,54,12.40
2017,05,29,00,55,12.30
2017,05,29,00,56,12.30
2017,05,29,00,57,12.30
2017,05,29,00,58,12.30
2017,05,29,00,59,12.30
2017,05,29,01,00,12.30
2017,05,29,01,01,12.30
2017,05,29,01,02,12.20
2017,05,29,01,03,12.20
2017,05,29,01,04,12.20
2017,05,29,01,05,12.20
2017,05,29,01,06,12.20
2017,05,29,01,07,12.20
2017,05,29,01,08,12.10
2017,05,29,01,09,12.10
2017,05,29,01,10,12.10
2017,05,29,01,11,12.00
2017,05,29,01,12,12.00
2017,05,29,01,13,11.90
2017,05,29,01,14,11.90
2017,05,29,01,15,11.80
2017,05,29,01,16,11.80
2017,05,29,01,17,11.80
2017,05,29,01,18,11.80
2017,05,29,01,19,11.80
2017,05,29,01,20,11.80
2017,05,29,01,21,11.70
2017,05,29,01,22,11.70
2017,05,29,01,23,11.70
2017,05,29,01,24,11.70
2017,05,29,01,25,11.70
2017,05,29,01,26,11.70
2017,05,29,01,27,11.60
2017,05,29,01,28,11.60
2017,05,29,01,29,11.60
2017,05,29,01,30,11.60
2017,05,29,01,31,11.60
2017,05,29,01,32,11.60
2017,05,29,01,33,11.60
2017,05,29,01,34,11.50
2017,05,29,01,35,11.50
2017,05,29,01,36,11.50
2017,05,29,01,37,11.50
2017,05,29,01,38,11.40
2017,05,29,01,39,11.40
2017,05,29,01,40,11.40
2017,05,29,01,41,11.40
2017,05,29,01,42,11.40
2017,05,29,01,43,11.40
2017,05,29,01,44,11.40
2017,05,29,01,45,11.40
2017,05,29,01,46,11.40
2017,05,29,01,47,11.40
2017,05,29,01,48,11.40
2017,05,29,01,49,11.40
2017,05,29,01,50,11.40
2017,05,29,01,51,11.40
2017,05,29,01,52,11.40
2017,05,29,01,53,11.30
2017,05,29,01,54,11.30
2017,05,29,01,55,11.30
2017,05,29,01,56,11.30
2017,05,29,01,57,11.30
2017,05,29,01,58,11.30
2017,05,29,01,59,11.40
2017,05,29,02,00,11.40
2017,05,29,02,01,11.40
2017,05,29,02,02,11.40
2017,05,29,02,03,11.40
2017,05,29,02,04,11.40
2017,05,29,02,05,11.50
2017,05,29,02,06,11.50
2017,05,29,02,07,11.50
2017,05,29,02,08,11.50
2017,05,29,02,09,11.50
2017,05,29,02,10,11.40
2017,05,29,02,11,11.40
2017,05,29,02,12,11.40
2017,05,29,02,13,11.40
2017,05,29,02,14,11.40
2017,05,29,02,15,11.40
2017,05,29,02,16,11.50
2017,05,29,02,17,11.50
2017,05,29,02,18,11.60
2017,05,29,02,19,11.60
2017,05,29,02,20,11.60
2017,05,29,02,21,11.70
2017,05,29,02,22,11.70
2017,05,29,02,23,11.80
2017,05,29,02,24,11.80
2017,05,29,02,25,11.80
2017,05,29,02,26,11.80
2017,05,29,02,27,11.70
2017,05,29,02,28,11.70
2017,05,29,02,29,11.60
2017,05,29,02,30,11.50
2017,05,29,02,31,11.50
2017,05,29,02,32,11.40
2017,05,29,02,33,11.40
2017,05,29,02,34,11.30
2017,05,29,02,35,11.30
2017,05,29,02,36,11.30
2017,05,29,02,37,11.30
2017,05,29,02,38,11.20
2017,05,29,02,39,11.20
2017,05,29,02,40,11.30
2017,05,29,02,41,11.30
2017,05,29,02,42,11.30
2017,05,29,02,43,11.30
2017,05,29,02,44,11.30
2017,05,29,02,45,11.30
2017,05,29,02,46,11.40
2017,05,29,02,47,11.40
2017,05,29,02,48,11.40
2017,05,29,02,49,11.40
2017,05,29,02,50,11.40
2017,05,29,02,51,11.40
2017,05,29,02,52,11.40
2017,05,29,02,53,11.30
2017,05,29,02,54,11.30
2017,05,29,02,55,11.30
2017,05,29,02,56,11.30
2017,05,29,02,57,11.30
2017,05,29,02,58,11.30
2017,05,29,02,59,11.30
2017,05,29,03,00,11.20
2017,05,29,03,01,11.20
2017,05,29,03,02,11.20
2017,05,29,03,03,11.20
2017,05,29,03,04,11.20
2017,05,29,03,05,11.10
2017,05,29,03,06,11.10
2017,05,29,03,07,11.10
2017,05,29,03,08,11.10
2017,05,29,03,09,11.10
2017,05,29,03,10,11.10
2017,05,29,03,11,11.10
2017,05,29,03,12,11.20
2017,05,29,03,13,11.20
2017,05,29,03,14,11.20
2017,05,29,03,15,11.20
2017,05,29,03,16,11.30
2017,05,29,03,17,11.30
2017,05,29,03,18,11.40
2017,05,29,03,19,11.40
2017,05,29,03,20,11.40
2017,05,29,03,21,11.40
2017,05,29,03,22,11.40
2017,05,29,03,23,11.40
2017,05,29,03,24,11.40
2017,05,29,03,25,11.40
2017,05,29,03,26,11.40
2017,05,29,03,27,11.40
2017,05,29,03,28,11.40
2017,05,29,03,29,11.40
2017,05,29,03,30,11.40
2017,05,29,03,31,11.40
2017,05,29,03,32,11.40
2017,05,29,03,33,11.40
2017,05,29,03,34,11.40
2017,05,29,03,35,11.40
2017,05,29,03,36,11.30
2017,05,29,03,37,11.30
2017,05,29,03,38,11.30
2017,05,29,03,39,11.30
2017,05,29,03,40,11.30
2017,05,29,03,41,11.30
2017,05,29,03,42,11.30
2017,05,29,03,43,11.30
2017,05,29,03,44,11.30
2017,05,29,03,45,11.30
2017,05,29,03,46,11.30
2017,05,29,03,47,11.30
2017,05,29,03,48,11.30
2017,05,29,03,49,11.30
2017,05,29,03,50,11.30
2017,05,29,03,51,11.30
2017,05,29,03,52,11.30
2017,05,29,03,53,11.30
2017,05,29,03,54,11.30
2017,05,29,03,55,11.30
2017,05,29,03,56,11.30
2017,05,29,03,57,11.40
2017,05,29,03,58,11.40
2017,05,29,03,59,11.40
2017,05,29,04,00,11.40
2017,05,29,04,01,11.40
2017,05,29,04,02,11.40
2017,05,29,04,03,11.30
2017,05,29,04,04,11.30
2017,05,29,04,05,11.20
2017,05,29,04,06,11.20
2017,05,29,04,07,11.10
2017,05,29,04,08,11.00
2017,05,29,04,09,11.00
2017,05,29,04,10,10.90
2017,05,29,04,11,10.90
2017,05,29,04,12,10.80
2017,05,29,04,13,10.80
2017,05,29,04,14,10.80
2017,05,29,04,15,10.70
2017,05,29,04,16,10.70
2017,05,29,04,17,10.70
2017,05,29,04,18,10.70
2017,05,29,04,19,10.70
2017,05,29,04,20,10.70
2017,05,29,04,21,10.70
2017,05,29,04,22,10.70
2017,05,29,04,23,10.70
2017,05,29,04,24,10.70
2017,05,29,04,25,10.70
2017,05,29,04,26,10.70
2017,05,29,04,27,10.60
2017,05,29,04,28,10.60
2017,05,29,04,29,10.50
2017,05,29,04,30,10.40
2017,05,29,04,31,10.40
2017,05,29,04,32,10.30
2017,05,29,04,33,10.30
2017,05,29,04,34,10.30
2017,05,29,04,35,10.30
2017,05,29,04,36,10.30
2017,05,29,04,37,10.30
2017,05,29,04,38,10.30
2017,05,29,04,39,10.30
2017,05,29,04,40,10.30
2017,05,29,04,41,10.30
2017,05,29,04,42,10.30
2017,05,29,04,43,10.30
2017,05,29,04,44,10.30
2017,05,29,04,45,10.30
2017,05,29,04,46,10.30
2017,05,29,04,47,10.30
2017,05,29,04,48,10.20
2017,05,29,04,49,10.20
2017,05,29,04,50,10.20
2017,05,29,04,51,10.20
2017,05,29,04,52,10.10
2017,05,29,04,53,10.10
2017,05,29,04,54,10.10
2017,05,29,04,55,10.10
2017,05,29,04,56,10.10
2017,05,29,04,57,10.10
2017,05,29,04,58,10.10
2017,05,29,04,59,10.10
2017,05,29,05,00,10.10
2017,05,29,05,01,10.10
2017,05,29,05,02,10.10
2017,05,29,05,03,10.10
2017,05,29,05,04,10.10
2017,05,29,05,05,10.10
2017,05,29,05,06,10.10
2017,05,29,05,07,10.00
2017,05,29,05,08,10.00
2017,05,29,05,09,9.90
2017,05,29,05,10,9.90
2017,05,29,05,11,9.80
2017,05,29,05,12,9.80
2017,05,29,05,13,9.80
2017,05,29,05,14,9.70
2017,05,29,05,15,9.70
2017,05,29,05,16,9.70
2017,05,29,05,17,9.70
2017,05,29,05,18,9.80
2017,05,29,05,19,9.80
2017,05,29,05,20,9.80
2017,05,29,05,21,9.80
2017,05,29,05,22,9.80
2017,05,29,05,23,9.80
2017,05,29,05,24,9.80
2017,05,29,05,25,9.80
2017,05,29,05,26,9.90
2017,05,29,05,27,9.90
2017,05,29,05,28,9.90
2017,05,29,05,29,9.90
2017,05,29,05,30,9.90
2017,05,29,05,31,9.90
2017,05,29,05,32,9.90
2017,05,29,05,33,9.90
2017,05,29,05,34,9.90
2017,05,29,05,35,9.90
2017,05,29,05,36,9.90
2017,05,29,05,37,9.90
2017,05,29,05,38,9.90
2017,05,29,05,39,10.00
2017,05,29,05,40,10.00
2017,05,29,05,41,10.00
2017,05,29,05,42,10.00
2017,05,29,05,43,10.10
2017,05,29,05,44,10.10
2017,05,29,05,45,10.10
2017,05,29,05,46,10.20
2017,05,29,05,47,10.20
2017,05,29,05,48,10.20
2017,05,29,05,49,10.30
2017,05,29,05,50,10.30
2017,05,29,05,51,10.30
2017,05,29,05,52,10.40
2017,05,29,05,53,10.40
2017,05,29,05,54,10.40
2017,05,29,05,55,10.50
2017,05,29,05,56,10.50
2017,05,29,05,57,10.50
2017,05,29,05,58,10.60
2017,05,29,05,59,10.60
2017,05,29,06,00,10.60
2017,05,29,06,01,10.70
2017,05,29,06,02,10.70
2017,05,29,06,03,10.70
2017,05,29,06,04,10.80
2017,05,29,06,05,10.80
2017,05,29,06,06,10.80
2017,05,29,06,07,10.80
2017,05,29,06,08,10.80
2017,05,29,06,09,10.80
2017,05,29,06,10,10.90
2017,05,29,06,11,10.90
2017,05,29,06,12,10.90
2017,05,29,06,13,11.00
2017,05,29,06,14,11.00
2017,05,29,06,15,11.00
2017,05,29,06,16,11.10
2017,05,29,06,17,11.10
2017,05,29,06,18,11.00
2017,05,29,06,19,11.00
2017,05,29,06,20,10.90
2017,05,29,06,21,10.80
2017,05,29,06,22,10.80
2017,05,29,06,23,10.70
2017,05,29,06,24,10.70
2017,05,29,06,25,10.70
2017,05,29,06,26,10.70
2017,05,29,06,27,10.70
2017,05,29,06,28,10.60
2017,05,29,06,29,10.60
2017,05,29,06,30,10.60
2017,05,29,06,31,10.70
2017,05,29,06,32,10.70
2017,05,29,06,33,10.70
2017,05,29,06,34,10.70
2017,05,29,06,35,10.70
2017,05,29,06,36,10.70
2017,05,29,06,37,10.70
2017,05,29,06,38,10.70
2017,05,29,06,39,10.70
2017,05,29,06,40,10.70
2017,05,29,06,41,10.70
2017,05,29,06,42,10.70
2017,05,29,06,43,10.70
2017,05,29,06,44,10.70
2017,05,29,06,45,10.70
2017,05,29,06,46,10.80
2017,05,29,06,47,10.80
2017,05,29,06,48,10.90
2017,05,29,06,49,11.00
2017,05,29,06,50,11.10
2017,05,29,06,51,11.20
2017,05,29,06,52,11.30
2017,05,29,06,53,11.40
2017,05,29,06,54,11.50
2017,05,29,06,55,11.60
2017,05,29,06,56,11.70
2017,05,29,06,57,11.80
2017,05,29,06,58,12.00
2017,05,29,06,59,12.10
2017,05,29,07,00,12.20
2017,05,29,07,01,12.30
2017,05,29,07,02,12.50
2017,05,29,07,03,12.60
2017,05,29,07,04,12.70
2017,05,29,07,05,12.80
2017,05,29,07,06,12.90
2017,05,29,07,07,13.00
2017,05,29,07,08,13.00
2017,05,29,07,09,13.10
2017,05,29,07,10,13.10
2017,05,29,07,11,13.20
2017,05,29,07,12,13.30
2017,05,29,07,13,13.40
2017,05,29,07,14,13.50
2017,05,29,07,15,13.60
2017,05,29,07,16,13.60
2017,05,29,07,17,13.60
2017,05,29,07,18,13.50
2017,05,29,07,19,13.50
2017,05,29,07,20,13.40
2017,05,29,07,21,13.40
2017,05,29,07,22,13.30
2017,05,29,07,23,13.30
2017,05,29,07,24,13.30
2017,05,29,07,25,13.40
2017,05,29,07,26,13.40
2017,05,29,07,27,13.40
2017,05,29,07,28,13.40
2017,05,29,07,29,13.40
2017,05,29,07,30,13.40
2017,05,29,07,31,13.50
2017,05,29,07,32,13.50
2017,05,29,07,33,13.60
2017,05,29,07,34,13.60
2017,05,29,07,35,13.70
2017,05,29,07,36,13.70
2017,05,29,07,37,13.70
2017,05,29,07,38,13.70
2017,05,29,07,39,13.70
2017,05,29,07,40,13.70
2017,05,29,07,41,13.70
2017,05,29,07,42,13.80
2017,05,29,07,43,13.80
2017,05,29,07,44,13.80
2017,05,29,07,45,13.80
2017,05,29,07,46,13.80
2017,05,29,07,47,13.80
2017,05,29,07,48,13.90
2017,05,29,07,49,13.90
2017,05,29,07,50,13.90
2017,05,29,07,51,13.90
2017,05,29,07,52,13.90
2017,05,29,07,53,13.90
2017,05,29,07,54,14.00
2017,05,29,07,55,14.00
2017,05,29,07,56,14.00
2017,05,29,07,57,14.00
2017,05,29,07,58,14.00
2017,05,29,07,59,14.00
2017,05,29,08,00,14.00
2017,05,29,08,01,14.00
2017,05,29,08,02,14.00
2017,05,29,08,03,14.10
2017,05,29,08,04,14.10
2017,05,29,08,05,14.10
2017,05,29,08,06,14.10
2017,05,29,08,07,14.10
2017,05,29,08,08,14.20
2017,05,29,08,09,14.20
2017,05,29,08,10,14.20
2017,05,29,08,11,14.30
2017,05,29,08,12,14.30
2017,05,29,08,13,14.40
2017,05,29,08,14,14.40
2017,05,29,08,15,14.40
2017,05,29,08,16,14.40
2017,05,29,08,17,14.40
2017,05,29,08,18,14.40
2017,05,29,08,19,14.40
2017,05,29,08,20,14.40
2017,05,29,08,21,14.50
2017,05,29,08,22,14.50
2017,05,29,08,23,14.50
2017,05,29,08,24,14.50
2017,05,29,08,25,14.50
2017,05,29,08,26,14.40
2017,05,29,08,27,14.40
2017,05,29,08,28,14.30
2017,05,29,08,29,14.30
2017,05,29,08,30,14.30
2017,05,29,08,31,14.40
2017,05,29,08,32,14.50
2017,05,29,08,33,14.50
2017,05,29,08,34,14.60
2017,05,29,08,35,14.50
2017,05,29,08,36,14.50
2017,05,29,08,37,14.40
2017,05,29,08,38,14.40
2017,05,29,08,39,14.40
2017,05,29,08,40,14.40
2017,05,29,08,41,14.40
2017,05,29,08,42,14.30
2017,05,29,08,43,14.30
2017,05,29,08,44,14.30
2017,05,29,08,45,14.20
2017,05,29,08,46,14.20
2017,05,29,08,47,14.20
2017,05,29,08,48,14.10
2017,05,29,08,49,14.10
2017,05,29,08,50,14.10
2017,05,29,08,51,14.10
2017,05,29,08,52,14.20
2017,05,29,08,53,14.20
2017,05,29,08,54,14.20
2017,05,29,08,55,14.20
2017,05,29,08,56,14.20
2017,05,29,08,57,14.30
2017,05,29,08,58,14.30
2017,05,29,08,59,14.30
2017,05,29,09,00,14.30
2017,05,29,09,01,14.20
2017,05,29,09,02,14.10
2017,05,29,09,03,14.10
2017,05,29,09,04,14.10
2017,05,29,09,05,14.10
2017,05,29,09,06,14.10
2017,05,29,09,07,14.20
2017,05,29,09,08,14.20
2017,05,29,09,09,14.30
2017,05,29,09,10,14.30
2017,05,29,09,11,14.30
2017,05,29,09,12,14.30
2017,05,29,09,13,14.30
2017,05,29,09,14,14.20
2017,05,29,09,15,14.10
2017,05,29,09,16,14.10
2017,05,29,09,17,14.20
2017,05,29,09,18,14.20
2017,05,29,09,19,14.10
2017,05,29,09,20,14.10
2017,05,29,09,21,14.20
2017,05,29,09,22,14.30
2017,05,29,09,23,14.50
2017,05,29,09,24,14.60
2017,05,29,09,25,14.70
2017,05,29,09,26,14.70
2017,05,29,09,27,14.70
2017,05,29,09,28,14.70
2017,05,29,09,29,14.80
2017,05,29,09,30,14.80
2017,05,29,09,31,14.90
2017,05,29,09,32,14.90
2017,05,29,09,33,15.00
2017,05,29,09,34,15.00
2017,05,29,09,35,15.00
2017,05,29,09,36,14.90
2017,05,29,09,37,14.90
2017,05,29,09,38,14.80
2017,05,29,09,39,14.80
2017,05,29,09,40,14.80
2017,05,29,09,41,14.70
2017,05,29,09,42,14.80
2017,05,29,09,43,14.80
2017,05,29,09,44,14.80
2017,05,29,09,45,14.70
2017,05,29,09,46,14.60
2017,05,29,09,47,14.60
2017,05,29,09,48,14.60
2017,05,29,09,49,14.60
2017,05,29,09,50,14.70
2017,05,29,09,51,14.70
2017,05,29,09,52,14.80
2017,05,29,09,53,14.80
2017,05,29,09,54,14.80
2017,05,29,09,55,14.80
2017,05,29,09,56,14.90
2017,05,29,09,57,14.90
2017,05,29,09,58,15.00
2017,05,29,09,59,15.10
2017,05,29,10,00,15.20
2017,05,29,10,01,15.30
2017,05,29,10,02,15.30
2017,05,29,10,03,15.30
2017,05,29,10,04,15.30
2017,05,29,10,05,15.40
2017,05,29,10,06,15.40
2017,05,29,10,07,15.40
2017,05,29,10,08,15.40
2017,05,29,10,09,15.50
2017,05,29,10,10,15.50
2017,05,29,10,11,15.60
2017,05,29,10,12,15.70
2017,05,29,10,13,15.80
2017,05,29,10,14,15.80
2017,05,29,10,15,15.60
2017,05,29,10,16,15.40
2017,05,29,10,17,15.30
2017,05,29,10,18,15.20
2017,05,29,10,19,15.20
2017,05,29,10,20,15.20
2017,05,29,10,21,15.10
2017,05,29,10,22,15.10
2017,05,29,10,23,15.10
2017,05,29,10,24,15.10
2017,05,29,10,25,15.10
2017,05,29,10,26,15.00
2017,05,29,10,27,15.00
2017,05,29,10,28,15.00
2017,05,29,10,29,15.10
2017,05,29,10,30,15.20
2017,05,29,10,31,15.30
2017,05,29,10,32,15.30
2017,05,29,10,33,15.30
2017,05,29,10,34,15.30
2017,05,29,10,35,15.10
2017,05,29,10,36,14.90
2017,05,29,10,37,14.70
2017,05,29,10,38,14.60
2017,05,29,10,39,14.60
2017,05,29,10,40,14.60
2017,05,29,10,41,14.70
2017,05,29,10,42,14.80
2017,05,29,10,43,14.80
2017,05,29,10,44,14.90
2017,05,29,10,45,14.90
2017,05,29,10,46,14.90
2017,05,29,10,47,15.00
2017,05,29,10,48,15.10
2017,05,29,10,49,15.10
2017,05,29,10,50,15.20
2017,05,29,10,51,15.30
2017,05,29,10,52,15.40
2017,05,29,10,53,15.60
2017,05,29,10,54,15.60
2017,05,29,10,55,15.60
2017,05,29,10,56,15.70
2017,05,29,10,57,15.70
2017,05,29,10,58,15.70
2017,05,29,10,59,15.70
2017,05,29,11,00,15.60
2017,05,29,11,01,15.50
2017,05,29,11,02,15.50
2017,05,29,11,03,15.60
2017,05,29,11,04,15.60
2017,05,29,11,05,15.70
2017,05,29,11,06,15.70
2017,05,29,11,07,15.60
2017,05,29,11,08,15.50
2017,05,29,11,09,15.40
2017,05,29,11,10,15.20
2017,05,29,11,11,15.10
2017,05,29,11,12,15.10
2017,05,29,11,13,15.10
2017,05,29,11,14,15.00
2017,05,29,11,15,15.00
2017,05,29,11,16,14.90
2017,05,29,11,17,14.80
2017,05,29,11,18,14.70
2017,05,29,11,19,14.70
2017,05,29,11,20,14.70
2017,05,29,11,21,14.70
2017,05,29,11,22,14.80
2017,05,29,11,23,14.80
2017,05,29,11,24,14.90
2017,05,29,11,25,15.00
2017,05,29,11,26,15.10
2017,05,29,11,27,15.20
2017,05,29,11,28,15.20
2017,05,29,11,29,15.20
2017,05,29,11,30,15.20
2017,05,29,11,31,15.30
2017,05,29,11,32,15.20
2017,05,29,11,33,15.20
2017,05,29,11,34,15.20
2017,05,29,11,35,15.20
2017,05,29,11,36,15.20
2017,05,29,11,37,15.20
2017,05,29,11,38,15.20
2017,05,29,11,39,15.20
2017,05,29,11,40,15.10
2017,05,29,11,41,15.00
2017,05,29,11,42,15.00
2017,05,29,11,43,15.10
2017,05,29,11,44,15.10
2017,05,29,11,45,15.10
2017,05,29,11,46,15.30
2017,05,29,11,47,15.40
2017,05,29,11,48,15.50
2017,05,29,11,49,15.50
2017,05,29,11,50,15.60
2017,05,29,11,51,15.70
2017,05,29,11,52,15.80
2017,05,29,11,53,15.80
2017,05,29,11,54,15.90
2017,05,29,11,55,15.90
2017,05,29,11,56,15.90
2017,05,29,11,57,15.90
2017,05,29,11,58,16.00
2017,05,29,11,59,16.00
2017,05,29,12,00,16.10
2017,05,29,12,01,16.20
2017,05,29,12,02,16.20
2017,05,29,12,03,16.20
2017,05,29,12,04,16.30
2017,05,29,12,05,16.30
2017,05,29,12,06,16.20
2017,05,29,12,07,16.20
2017,05,29,12,08,16.20
2017,05,29,12,09,16.30
2017,05,29,12,10,16.30
2017,05,29,12,11,16.30
2017,05,29,12,12,16.40
2017,05,29,12,13,16.40
2017,05,29,12,14,16.50
2017,05,29,12,15,16.50
2017,05,29,12,16,16.60
2017,05,29,12,17,16.70
2017,05,29,12,18,16.80
2017,05,29,12,19,16.80
2017,05,29,12,20,16.80
2017,05,29,12,21,16.70
2017,05,29,12,22,16.80
2017,05,29,12,23,16.80
2017,05,29,12,24,16.80
2017,05,29,12,25,16.80
2017,05,29,12,26,16.70
2017,05,29,12,27,16.70
2017,05,29,12,28,16.70
2017,05,29,12,29,16.70
2017,05,29,12,30,16.80
2017,05,29,12,31,16.80
2017,05,29,12,32,16.90
2017,05,29,12,33,16.90
2017,05,29,12,34,16.90
2017,05,29,12,35,16.90
2017,05,29,12,36,16.90
2017,05,29,12,37,16.90
2017,05,29,12,38,17.00
2017,05,29,12,39,17.00
2017,05,29,12,40,17.10
2017,05,29,12,41,17.10
2017,05,29,12,42,17.20
2017,05,29,12,43,17.30
2017,05,29,12,44,17.40
2017,05,29,12,45,17.40
2017,05,29,12,46,17.40
2017,05,29,12,47,17.30
2017,05,29,12,48,17.10
2017,05,29,12,49,17.10
2017,05,29,12,50,17.00
2017,05,29,12,51,17.00
2017,05,29,12,52,17.10
2017,05,29,12,53,17.10
2017,05,29,12,54,17.10
2017,05,29,12,55,17.10
2017,05,29,12,56,16.90
2017,05,29,12,57,16.90
2017,05,29,12,58,16.90
2017,05,29,12,59,16.80
2017,05,29,13,00,16.80
2017,05,29,13,01,16.70
2017,05,29,13,02,16.70
2017,05,29,13,03,16.80
2017,05,29,13,04,16.90
2017,05,29,13,05,17.10
2017,05,29,13,06,17.30
2017,05,29,13,07,17.40
2017,05,29,13,08,17.50
2017,05,29,13,09,17.60
2017,05,29,13,10,17.70
2017,05,29,13,11,17.70
2017,05,29,13,12,17.70
2017,05,29,13,13,17.70
2017,05,29,13,14,17.60
2017,05,29,13,15,17.50
2017,05,29,13,16,17.30
2017,05,29,13,17,17.20
2017,05,29,13,18,17.10
2017,05,29,13,19,17.10
2017,05,29,13,20,17.00
2017,05,29,13,21,16.90
2017,05,29,13,22,16.90
2017,05,29,13,23,16.90
2017,05,29,13,24,16.90
2017,05,29,13,25,17.00
2017,05,29,13,26,17.10
2017,05,29,13,27,17.20
2017,05,29,13,28,17.40
2017,05,29,13,29,17.50
2017,05,29,13,30,17.60
2017,05,29,13,31,17.80
2017,05,29,13,32,17.80
2017,05,29,13,33,17.80
2017,05,29,13,34,17.80
2017,05,29,13,35,17.70
2017,05,29,13,36,17.70
2017,05,29,13,37,17.70
2017,05,29,13,38,17.80
2017,05,29,13,39,17.80
2017,05,29,13,40,17.90
2017,05,29,13,41,17.90
2017,05,29,13,42,18.00
2017,05,29,13,43,17.90
2017,05,29,13,44,17.80
2017,05,29,13,45,17.70
2017,05,29,13,46,17.70
2017,05,29,13,47,17.70
2017,05,29,13,48,17.80
2017,05,29,13,49,17.80
2017,05,29,13,50,17.80
2017,05,29,13,51,17.80
2017,05,29,13,52,17.90
2017,05,29,13,53,18.00
2017,05,29,13,54,18.00
2017,05,29,13,55,17.90
2017,05,29,13,56,18.00
2017,05,29,13,57,18.00
2017,05,29,13,58,17.80
2017,05,29,13,59,17.60
2017,05,29,14,00,17.50
2017,05,29,14,01,17.50
2017,05,29,14,02,17.50
2017,05,29,14,03,17.50
2017,05,29,14,04,17.50
2017,05,29,14,05,17.50
2017,05,29,14,06,17.50
2017,05,29,14,07,17.60
2017,05,29,14,08,17.60
2017,05,29,14,09,17.60
2017,05,29,14,10,17.70
2017,05,29,14,11,17.80
2017,05,29,14,12,17.80
2017,05,29,14,13,17.80
2017,05,29,14,14,17.80
2017,05,29,14,15,17.80
2017,05,29,14,16,17.80
2017,05,29,14,17,17.80
2017,05,29,14,18,17.70
2017,05,29,14,19,17.70
2017,05,29,14,20,17.70
2017,05,29,14,21,17.60
2017,05,29,14,22,17.40
2017,05,29,14,23,17.40
2017,05,29,14,24,17.30
2017,05,29,14,25,17.30
2017,05,29,14,26,17.30
2017,05,29,14,27,17.30
2017,05,29,14,28,17.30
2017,05,29,14,29,17.30
2017,05,29,14,30,17.30
2017,05,29,14,31,17.40
2017,05,29,14,32,17.50
2017,05,29,14,33,17.70
2017,05,29,14,34,17.90
2017,05,29,14,35,18.10
2017,05,29,14,36,18.30
2017,05,29,14,37,18.30
2017,05,29,14,38,18.30
2017,05,29,14,39,18.40
2017,05,29,14,40,18.40
2017,05,29,14,41,18.50
2017,05,29,14,42,18.60
2017,05,29,14,43,18.60
2017,05,29,14,44,18.70
2017,05,29,14,45,18.60
2017,05,29,14,46,18.60
2017,05,29,14,47,18.70
2017,05,29,14,48,18.70
2017,05,29,14,49,18.70
2017,05,29,14,50,18.60
2017,05,29,14,51,18.60
2017,05,29,14,52,18.70
2017,05,29,14,53,18.80
2017,05,29,14,54,18.90
2017,05,29,14,55,19.00
2017,05,29,14,56,19.10
2017,05,29,14,57,19.10
2017,05,29,14,58,19.10
2017,05,29,14,59,19.10
2017,05,29,15,00,19.20
2017,05,29,15,01,19.20
2017,05,29,15,02,19.30
2017,05,29,15,03,19.30
2017,05,29,15,04,19.20
2017,05,29,15,05,19.10
2017,05,29,15,06,19.10
2017,05,29,15,07,19.00
2017,05,29,15,08,19.10
2017,05,29,15,09,19.10
2017,05,29,15,10,19.10
2017,05,29,15,11,19.10
2017,05,29,15,12,19.20
2017,05,29,15,13,19.30
2017,05,29,15,14,19.30
2017,05,29,15,15,19.30
2017,05,29,15,16,19.30
2017,05,29,15,17,19.40
2017,05,29,15,18,19.40
2017,05,29,15,19,19.40
2017,05,29,15,20,19.50
2017,05,29,15,21,19.50
2017,05,29,15,22,19.50
2017,05,29,15,23,19.50
2017,05,29,15,24,19.40
2017,05,29,15,25,19.30
2017,05,29,15,26,19.20
2017,05,29,15,27,19.20
2017,05,29,15,28,19.10
2017,05,29,15,29,19.00
2017,05,29,15,30,18.90
2017,05,29,15,31,18.90
2017,05,29,15,32,19.00
2017,05,29,15,33,19.00
2017,05,29,15,34,19.10
2017,05,29,15,35,19.10
2017,05,29,15,36,19.10
2017,05,29,15,37,19.20
2017,05,29,15,38,19.30
2017,05,29,15,39,19.50
2017,05,29,15,40,19.50
2017,05,29,15,41,19.60
2017,05,29,15,42,19.60
2017,05,29,15,43,19.60
2017,05,29,15,44,19.60
2017,05,29,15,45,19.50
2017,05,29,15,46,19.50
2017,05,29,15,47,19.40
2017,05,29,15,48,19.50
2017,05,29,15,49,19.40
2017,05,29,15,50,19.40
2017,05,29,15,51,19.50
2017,05,29,15,52,19.60
2017,05,29,15,53,19.70
2017,05,29,15,54,19.90
2017,05,29,15,55,20.00
2017,05,29,15,56,20.20
2017,05,29,15,57,20.30
2017,05,29,15,58,20.40
2017,05,29,15,59,20.60
2017,05,29,16,00,20.90
2017,05,29,16,01,21.20
2017,05,29,16,02,21.50
2017,05,29,16,03,21.80
2017,05,29,16,04,22.10
2017,05,29,16,05,22.30
2017,05,29,16,06,22.50
2017,05,29,16,07,22.70
2017,05,29,16,08,22.80
2017,05,29,16,09,22.80
2017,05,29,16,10,22.90
2017,05,29,16,11,23.00
2017,05,29,16,12,23.10
2017,05,29,16,13,23.20
2017,05,29,16,14,23.30
2017,05,29,16,15,23.30
2017,05,29,16,16,23.40
2017,05,29,16,17,23.50
2017,05,29,16,18,23.60
2017,05,29,16,19,23.60
2017,05,29,16,20,23.60
2017,05,29,16,21,23.60
2017,05,29,16,22,23.70
2017,05,29,16,23,23.80
2017,05,29,16,24,23.70
2017,05,29,16,25,23.70
2017,05,29,16,26,23.60
2017,05,29,16,27,23.40
2017,05,29,16,28,22.90
2017,05,29,16,29,22.60
2017,05,29,16,30,22.30
2017,05,29,16,31,22.20
2017,05,29,16,32,22.10
2017,05,29,16,33,22.00
2017,05,29,16,34,22.00
2017,05,29,16,35,22.10
2017,05,29,16,36,22.20
2017,05,29,16,37,22.20
2017,05,29,16,38,22.20
2017,05,29,16,39,22.30
2017,05,29,16,40,22.50
2017,05,29,16,41,22.80
2017,05,29,16,42,23.10
2017,05,29,16,43,23.30
2017,05,29,16,44,23.40
2017,05,29,16,45,23.50
2017,05,29,16,46,23.60
2017,05,29,16,47,23.70
2017,05,29,16,48,23.80
2017,05,29,16,49,23.90
2017,05,29,16,50,24.00
2017,05,29,16,51,24.00
2017,05,29,16,52,24.10
2017,05,29,16,53,24.20
2017,05,29,16,54,24.20
2017,05,29,16,55,24.30
2017,05,29,16,56,24.30
2017,05,29,16,57,24.30
2017,05,29,16,58,24.30
2017,05,29,16,59,24.40
2017,05,29,17,00,24.40
2017,05,29,17,01,24.50
2017,05,29,17,02,24.50
2017,05,29,17,03,24.60
2017,05,29,17,04,24.60
2017,05,29,17,05,24.60
2017,05,29,17,06,24.50
2017,05,29,17,07,24.40
2017,05,29,17,08,24.30
2017,05,29,17,09,24.30
2017,05,29,17,10,24.20
2017,05,29,17,11,24.20
2017,05,29,17,12,24.10
2017,05,29,17,13,24.00
2017,05,29,17,14,24.00
2017,05,29,17,15,24.00
2017,05,29,17,16,24.00
2017,05,29,17,17,23.90
2017,05,29,17,18,23.90
2017,05,29,17,19,23.90
2017,05,29,17,20,23.90